FW6366 Weather Reports


Display with metric or nautical units.
time (UTC)temp
F
wind
direction
speed
MPH
gust
MPH
rain 1hr
in
rain 24hr
in
rain mn
in
humidity
%
barometer
mb
20260502184058 48 95 0.0 5.0 0.01 0.33 0.33 84 1011.4
20260502183559 47 68 0.0 6.0 0.01 0.33 0.33 83 1011.5
20260502183101 48 72 2.0 6.0 0.02 0.33 0.33 82 1011.5
20260502182600 48 360 2.0 6.0 0.02 0.33 0.33 83 1011.6
20260502182057 48 342 2.0 7.0 0.02 0.33 0.33 87 1011.6
20260502181557 47 0 2.0 7.0 0.02 0.33 0.33 87 1011.7
20260502181101 46 51 2.0 8.0 0.02 0.33 0.33 88 1011.8
20260502180601 46 77 4.0 8.0 0.02 0.33 0.33 91 1012.0
20260502164057 45 177 0.0 3.0 0.03 0.31 0.31 89 1011.8
20260502163558 46 0 0.0 5.0 0.03 0.31 0.31 90 1011.8
20260502163105 45 0 0.0 5.0 0.03 0.31 0.31 89 1011.7
20260502162601 46 360 1.0 5.0 0.03 0.31 0.31 89 1011.8
20260502162101 46 0 0.0 1.0 0.02 0.30 0.30 90 1011.9
20260502161601 46 0 0.0 1.0 0.02 0.30 0.30 89 1011.7
20260502161059 45 0 0.0 3.0 0.02 0.30 0.30 89 1011.7
20260502160558 45 0 0.0 4.0 0.02 0.30 0.30 90 1011.7
20260502160104 45 0 0.0 7.0 0.01 0.29 0.29 89 1011.7
20260502152059 46 0 0.0 4.0 0.00 0.28 0.28 91 1011.6
20260502151611 46 0 0.0 4.0 0.00 0.28 0.28 91 1011.7
20260502151102 46 332 1.0 4.0 0.00 0.28 0.28 90 1011.6
20260502150601 47 0 1.0 7.0 0.00 0.28 0.28 91 1011.6
20260502150112 47 0 2.0 7.0 0.00 0.28 0.28 92 1011.5
20260502130601 45 0 0.0 1.0 0.12 0.27 0.27 95 1011.9
20260502123557 44 48 0.0 1.0 0.01 0.16 0.16 95 1011.7
20260502123102 44 0 0.0 2.0 0.00 0.15 0.15 95 1011.7
20260502122559 45 57 0.0 3.0 0.00 0.15 0.15 96 1011.7
20260502122100 44 0 0.0 3.0 0.00 0.15 0.15 95 1011.6
20260502121608 44 49 0.0 2.0 0.00 0.15 0.15 96 1011.6
20260502121101 44 0 0.0 2.0 0.00 0.15 0.15 96 1011.6
20260502120559 44 186 0.0 2.0 0.00 0.15 0.15 96 1011.5
20260502120114 44 0 0.0 2.0 0.00 0.15 0.15 96 1011.6
20260502115600 44 0 0.0 2.0 0.00 0.15 0.15 96 1011.5
20260502115101 44 160 0.0 4.0 0.00 0.15 0.15 96 1011.6
20260502114603 44 169 0.0 4.0 0.00 0.15 0.15 96 1011.5
20260502114059 43 165 1.0 3.0 0.00 0.15 0.15 96 1011.5
20260502113558 43 166 1.0 3.0 0.00 0.15 0.15 96 1011.5
20260502113100 43 169 0.0 2.0 0.00 0.15 0.15 96 1011.6
20260502112558 43 214 0.0 2.0 0.00 0.15 0.15 96 1011.7
20260502112059 43 203 0.0 2.0 0.00 0.15 0.15 96 1011.8
20260502111603 43 0 0.0 3.0 0.00 0.15 0.15 96 1011.8
20260502111100 43 188 0.0 3.0 0.01 0.15 0.15 96 1011.7
20260502110600 43 175 0.0 3.0 0.01 0.15 0.15 96 1011.6
20260502105600 42 0 0.0 1.0 0.01 0.15 0.15 96 1011.6
20260502105102 42 0 0.0 0.0 0.01 0.15 0.15 96 1011.6
20260502104600 42 0 0.0 0.0 0.01 0.15 0.15 96 1011.5
20260502104057 42 0 0.0 0.0 0.02 0.15 0.15 96 1011.6
20260502103601 42 0 0.0 0.0 0.02 0.15 0.15 96 1011.6
20260502103114 42 0 0.0 0.0 0.02 0.15 0.15 95 1011.6
20260502102558 42 0 0.0 0.0 0.02 0.15 0.15 95 1011.5
20260502102101 42 0 0.0 0.0 0.03 0.15 0.15 95 1011.4
20260502101601 42 0 0.0 0.0 0.04 0.15 0.15 96 1011.4
20260502101100 42 0 0.0 0.0 0.04 0.14 0.14 96 1011.3
20260502100558 42 0 0.0 1.0 0.04 0.14 0.14 96 1011.3
20260502100126 42 0 0.0 1.0 0.04 0.14 0.14 95 1011.2
20260502091058 42 0 0.0 2.0 0.02 0.10 0.10 95 1011.5
20260502090558 42 0 0.0 2.0 0.03 0.10 0.10 95 1011.6
20260502090116 42 0 0.0 2.0 0.03 0.10 0.10 95 1011.5
20260502080105 42 0 0.0 0.0 0.02 0.07 0.07 94 1011.7
20260502071059 42 0 0.0 2.0 0.02 0.05 0.05 93 1011.8
20260502070602 42 298 0.0 1.0 0.02 0.05 0.05 93 1011.7
20260502070100 42 0 0.0 0.0 0.02 0.05 0.05 93 1011.6
20260502065559 42 0 0.0 0.0 0.01 0.04 0.04 93 1011.9
20260502065101 42 0 0.0 0.0 0.02 0.04 0.04 93 1012.0
20260502064609 42 0 0.0 0.0 0.02 0.04 0.04 93 1012.0
20260502064058 42 0 0.0 0.0 0.02 0.04 0.04 93 1012.0
20260502063558 43 0 0.0 0.0 0.02 0.04 0.04 93 1011.9
20260502063059 43 0 0.0 1.0 0.01 0.03 0.03 93 1011.9
20260502062600 43 0 0.0 1.0 0.01 0.03 0.03 93 1011.9
20260502062101 43 0 0.0 3.0 0.01 0.03 0.03 92 1012.0
20260502061600 43 0 1.0 3.0 0.01 0.03 0.03 92 1012.0
20260502061057 43 0 1.0 3.0 0.01 0.03 0.03 92 1012.0
20260502060601 43 246 0.0 2.0 0.02 0.03 0.03 92 1012.1
20260502060101 43 277 0.0 1.0 0.02 0.03 0.03 92 1012.1
20260502055602 43 0 0.0 1.0 0.02 0.03 0.03 92 1012.1
20260502055102 43 0 0.0 1.0 0.01 0.02 0.02 92 1012.2
20260502054559 43 231 0.0 2.0 0.02 0.02 0.02 92 1012.1
20260502054104 43 0 0.0 3.0 0.02 0.02 0.02 91 1012.2
20260502053603 44 0 0.0 4.0 0.02 0.02 0.02 90 1012.2
20260502053058 43 0 1.0 4.0 0.02 0.02 0.02 90 1012.1
20260502052559 44 259 1.0 3.0 0.02 0.02 0.02 90 1012.2
20260502052059 44 271 1.0 3.0 0.02 0.02 0.02 89 1012.2
20260502051659 44 271 0.0 3.0 0.02 0.02 0.02 89 1012.2
20260502051059 44 232 0.0 3.0 0.02 0.02 0.02 88 1012.1
20260502050559 44 238 1.0 3.0 0.01 0.01 0.01 88 1012.3
20260502050100 44 233 2.0 3.0 0.01 0.01 0.01 88 1012.3
20260502045558 44 262 1.0 2.0 0.01 0.01 0.01 88 1012.2
20260502045100 44 0 0.0 2.0 0.01 0.01 0.01 87 1012.3
20260502044608 45 0 0.0 2.0 0.00 0.00 0.00 86 1012.3
20260502044100 45 186 0.0 2.0 0.00 0.00 0.00 85 1012.2
20260502043600 45 0 0.0 2.0 0.00 0.00 0.00 84 1012.1
20260502043110 45 300 0.0 2.0 0.00 0.00 0.00 83 1012.1
20260502042603 46 279 0.0 2.0 0.00 0.00 0.00 82 1012.0
20260502042100 46 290 1.0 2.0 0.00 0.00 0.00 81 1012.1
20260502041604 46 0 0.0 2.0 0.00 0.00 0.00 80 1012.0
20260502041102 46 303 0.0 1.0 0.00 0.00 0.00 81 1012.0
20260502040559 46 0 0.0 1.0 0.00 0.00 0.00 80 1011.9
20260502040057 46 0 0.0 2.0 0.00 0.00 0.00 80 1011.9
20260502035559 46 0 0.0 2.0 0.00 0.00 0.00 79 1011.9
20260502035100 46 295 1.0 2.0 0.00 0.00 0.00 78 1011.9
20260502034600 46 306 1.0 3.0 0.00 0.00 0.00 77 1011.8
20260502034058 46 307 1.0 3.0 0.00 0.00 0.00 78 1011.9
20260502033557 46 309 1.0 3.0 0.00 0.00 0.00 79 1012.0
20260502033101 46 301 0.0 3.0 0.00 0.00 0.00 78 1011.9
20260502032600 46 0 0.0 2.0 0.00 0.00 0.00 79 1011.9
20260502032101 45 321 0.0 2.0 0.00 0.00 0.00 80 1011.8
20260502031611 45 0 0.0 2.0 0.00 0.00 0.00 79 1011.8
20260502031101 45 0 0.0 2.0 0.00 0.00 0.00 79 1011.9
20260502030603 45 0 0.0 2.0 0.00 0.00 0.00 78 1011.9
20260502030101 45 0 0.0 1.0 0.00 0.00 0.00 77 1011.8
20260502025600 45 0 0.0 1.0 0.00 0.03 0.00 79 1011.6
20260502025058 45 0 0.0 1.0 0.00 0.03 0.00 79 1011.7
20260502024600 45 0 0.0 1.0 0.00 0.03 0.00 78 1011.6
20260502024059 45 0 0.0 1.0 0.00 0.03 0.00 78 1011.6
20260502023559 45 0 0.0 1.0 0.00 0.03 0.00 79 1011.7
20260502023102 44 285 0.0 1.0 0.00 0.03 0.00 79 1011.6
20260502022557 45 0 0.0 1.0 0.00 0.03 0.00 78 1011.5
20260502022101 45 0 0.0 1.0 0.00 0.03 0.00 78 1011.6
20260502021601 45 0 0.0 1.0 0.00 0.03 0.00 78 1011.4
20260502021101 45 0 0.0 1.0 0.00 0.03 0.00 78 1011.4
20260502020600 45 304 0.0 2.0 0.00 0.03 0.00 76 1011.5
20260502020313 45 293 0.0 2.0 0.00 0.03 0.00 75 1011.5
20260502020109 45 293 0.0 2.0 0.00 0.03 0.00 75 1011.5
20260502015602 45 0 0.0 2.0 0.00 0.04 0.00 77 1011.5
20260502015102 45 23 0.0 2.0 0.00 0.04 0.00 77 1011.5
20260502014559 46 0 0.0 1.0 0.00 0.04 0.00 77 1011.5
20260502014058 46 0 0.0 1.0 0.00 0.04 0.00 76 1011.4
20260502013601 47 0 0.0 1.0 0.00 0.04 0.00 77 1011.5
20260502013112 47 0 0.0 0.0 0.00 0.04 0.00 77 1011.6
20260502012559 47 0 0.0 0.0 0.00 0.04 0.00 75 1011.6
20260502012102 47 0 0.0 1.0 0.00 0.04 0.00 74 1011.5
20260502011559 47 0 0.0 1.0 0.00 0.04 0.00 74 1011.6
20260502011100 47 0 0.0 1.0 0.00 0.04 0.00 76 1011.5
20260502010603 47 0 0.0 1.0 0.00 0.04 0.00 78 1011.4
20260502010101 47 0 0.0 1.0 0.00 0.04 0.00 78 1011.4
20260502005601 47 311 0.0 1.0 0.00 0.18 0.00 77 1011.3
20260502005059 47 0 0.0 2.0 0.00 0.18 0.00 76 1011.2
20260502004603 48 0 0.0 2.0 0.00 0.18 0.00 75 1011.0
20260502004057 48 291 0.0 2.0 0.00 0.18 0.00 74 1011.0
20260502003602 48 0 0.0 2.0 0.00 0.18 0.00 74 1010.9
20260502003100 48 264 1.0 2.0 0.00 0.18 0.00 70 1010.9
20260502002558 48 299 1.0 3.0 0.00 0.18 0.00 71 1010.8
20260502002058 48 302 0.0 3.0 0.00 0.18 0.00 71 1010.8
20260502001600 49 299 1.0 3.0 0.00 0.18 0.00 68 1010.7
20260502001059 49 300 2.0 3.0 0.00 0.18 0.00 67 1010.5
20260502000558 49 304 1.0 3.0 0.00 0.18 0.00 66 1010.6
20260501235601 49 290 0.0 2.0 0.00 0.25 0.00 72 1010.5
20260501235100 49 278 1.0 3.0 0.00 0.25 0.00 69 1010.6
20260501234600 50 304 2.0 3.0 0.00 0.25 0.00 67 1010.3
20260501234101 50 304 2.0 3.0 0.00 0.25 0.00 65 1010.2
20260501233602 50 304 2.0 3.0 0.00 0.25 0.00 65 1010.1
20260501233103 50 303 2.0 3.0 0.00 0.25 0.00 65 1010.1
20260501232600 51 304 2.0 3.0 0.00 0.25 0.00 63 1010.0
20260501232105 51 302 1.0 3.0 0.00 0.25 0.00 62 1009.9
20260501232101 51 303 2.0 4.0 0.00 0.25 0.00 62 1009.9
20260501231058 51 326 2.0 4.0 0.00 0.25 0.00 62 1009.8
20260501230558 51 302 2.0 3.0 0.00 0.25 0.00 58 1009.7
20260501230114 52 305 2.0 3.0 0.00 0.25 0.00 57 1009.6
20260501225558 52 306 2.0 4.0 0.00 0.26 0.00 56 1009.5
20260501225058 52 311 1.0 4.0 0.00 0.26 0.00 56 1009.4
20260501224559 52 316 1.0 4.0 0.00 0.26 0.00 56 1009.5
20260501224058 52 326 1.0 4.0 0.00 0.26 0.00 57 1009.4
20260501223600 52 326 1.0 4.0 0.00 0.26 0.00 56 1009.4
20260501223100 52 0 1.0 4.0 0.00 0.26 0.00 58 1009.4
20260501222558 52 0 1.0 5.0 0.00 0.26 0.00 58 1009.4
20260501222105 53 306 1.0 5.0 0.00 0.26 0.00 58 1009.3
20260501221558 53 0 1.0 5.0 0.00 0.26 0.00 47 1009.3
20260501221057 52 306 1.0 4.0 0.00 0.26 0.00 55 1009.4
20260501220559 53 306 1.0 7.0 0.00 0.26 0.00 54 1009.4
20260501220101 54 316 2.0 7.0 0.00 0.26 0.00 44 1009.3
20260501215602 53 329 1.0 5.0 0.00 0.28 0.00 54 1009.3
20260501215058 53 19 0.0 6.0 0.00 0.28 0.00 54 1009.4
20260501214612 53 295 0.0 6.0 0.00 0.28 0.00 51 1009.4
20260501214058 54 8 2.0 6.0 0.00 0.28 0.00 40 1009.5
20260501213600 53 335 0.0 5.0 0.00 0.28 0.00 53 1009.5
20260501213103 53 0 1.0 5.0 0.00 0.28 0.00 55 1009.4
20260501212600 54 0 0.0 6.0 0.00 0.28 0.00 47 1009.5
20260501212102 55 0 2.0 11.0 0.00 0.28 0.00 42 1009.5
20260501211600 55 1 4.0 11.0 0.00 0.28 0.00 44 1009.5
20260501211059 56 52 1.0 5.0 0.00 0.28 0.00 37 1009.5
20260501210600 55 0 2.0 5.0 0.00 0.28 0.00 37 1009.5
20260501210057 54 262 0.0 4.0 0.00 0.28 0.00 45 1009.5
20260501205600 54 323 1.0 4.0 0.00 0.31 0.00 48 1009.5
20260501205101 54 0 0.0 4.0 0.00 0.31 0.00 40 1009.4
20260501204601 55 60 0.0 6.0 0.00 0.31 0.00 37 1009.5
20260501204100 55 228 2.0 6.0 0.00 0.31 0.00 35 1009.5
20260501203559 56 21 2.0 6.0 0.00 0.31 0.00 36 1009.4
20260501203104 57 262 2.0 5.0 0.00 0.31 0.00 38 1009.3
20260501202600 56 360 1.0 5.0 0.00 0.31 0.00 37 1009.3
20260501202100 56 0 0.0 10.0 0.00 0.31 0.00 38 1009.3
20260501201603 55 0 3.0 10.0 0.00 0.31 0.00 36 1009.4
20260501201104 56 52 5.0 10.0 0.00 0.31 0.00 37 1009.4
20260501200602 56 66 3.0 9.0 0.00 0.31 0.00 38 1009.5
20260501200059 56 1 2.0 9.0 0.00 0.31 0.00 40 1009.5
20260501195600 55 297 1.0 10.0 0.00 0.32 0.00 38 1009.5
20260501195100 56 0 2.0 10.0 0.00 0.32 0.00 37 1009.3
20260501194603 57 56 5.0 13.0 0.00 0.32 0.00 41 1009.4
20260501194057 57 17 3.0 13.0 0.00 0.32 0.00 43 1009.6
20260501193600 56 35 2.0 9.0 0.00 0.32 0.00 42 1009.5
20260501193057 56 58 1.0 12.0 0.00 0.32 0.00 40 1009.7
20260501192559 55 0 0.0 12.0 0.00 0.32 0.00 38 1009.7
20260501192057 56 5 6.0 12.0 0.00 0.32 0.00 43 1009.7
20260501191607 57 92 2.0 11.0 0.00 0.32 0.00 37 1009.6
20260501191100 57 129 2.0 11.0 0.00 0.32 0.00 42 1009.7
20260501190603 57 129 6.0 11.0 0.00 0.32 0.00 37 1009.8
20260501190132 56 0 4.0 11.0 0.00 0.32 0.00 40 1010.0
20260501185600 56 296 2.0 9.0 0.00 0.32 0.00 39 1009.8
20260501185100 56 193 3.0 9.0 0.00 0.32 0.00 42 1010.1
20260501184600 55 120 3.0 5.0 0.00 0.32 0.00 44 1010.0